Flag for Japan Weather past 2 weeks in Minamisōma, Japan

Now
66 °F

Partly cloudy.


Feels Like: 66 °F
Forecast: 65 / 80 °F
Wind: 6 mph from South

Location: Sendai Airport

Current Time: Oct 2, 2014 at 8:20:47 PM

Latest Report: Oct 2, 2014 at 8:00 PM


Visibility: N/A

Pressure: 29.86 "Hg

Humidity: 94%

Dew point: 64 °F

Location of MinamisōmaLocation

Historic Weather in Minamisōma — Graph

°F

Minamisōma temperature yesterday

Maximum temperature yesterday: 68 °F (at 1:00 PM)
Minimum temperature yesterday: 61 °F (at 6:00 AM)
Average temperature yesterday: 65 °F

Past Weeks' High & Low Weather Summary

 TemperatureHumidityPressure
High79 °F (Sep 30, 12:00 PM)100% (Sep 25, 9:00 AM)30.24 "Hg (Sep 25, 9:00 AM)
Low54 °F (Sep 21, 6:00 AM)29% (Sep 18, 2:00 PM)29.56 "Hg (Sep 25, 1:00 PM)
Average68 °F66%29.95 "Hg
* Reported Sep 17 7:00 PM — Oct 2 7:00 PM, Minamisōma, Weather by CustomWeather, © 2014

Note: Actual official high and low records may vary slightly from our data, if they occured in-between our weather recording intervals... More about our weather records

Advertising

Minamisōma weather history for previous 24 hours

 ConditionsComfort  
Time TempWeatherWind HumidityBarometerVisibility
7:00 PM
Oct 2
68 °FSprinkles. Passing clouds.9 mph83%29.89 "HgN/A
6:00 PM66 °FPassing clouds.10 mph88%29.89 "HgN/A
5:00 PM66 °FPartly sunny.10 mph88%29.89 "HgN/A
4:00 PM66 °FPartly sunny.6 mph83%29.92 "HgN/A
3:00 PM66 °FPartly sunny.5 mph88%29.92 "HgN/A
2:00 PM66 °FPartly sunny.6 mph83%29.95 "HgN/A
1:00 PM68 °FBroken clouds.6 mph78%29.95 "HgN/A
12:00 PM66 °FBroken clouds.5 mph78%29.98 "HgN/A
11:00 AM66 °FBroken clouds.2 mph78%30.01 "HgN/A
10:00 AM66 °FPartly sunny.1 mph78%30.01 "HgN/A
9:00 AM64 °FPartly sunny.2 mph78%30.01 "HgN/A
8:00 AM63 °FPartly sunny.2 mph83%30.04 "HgN/A
7:00 AM61 °FPartly sunny.3 mph88%30.04 "HgN/A
6:00 AM59 °FPartly sunny.2 mph94%30.01 "HgN/A
9:00 PM
Oct 1
63 °FPassing clouds.5 mph77%30.07 "HgN/A
8:00 PM63 °FPassing clouds.7 mph77%30.07 "HgN/A
Weather by CustomWeather, © 2014

See weather overviewHow to use our weather pages